User: anonymous   Login
Location: Dal�� Lhota
(48.7500°N, 14.0167°E)
Time: 11:22:09
(UTC+00:00)
Language:

Transit 2A - Orbit

View from above orbital plane
View from above orbital plane
View from above satellite
View from above satellite

Ground track
Ground track

The orbit data is extracted from the following two-line orbital elements,

1    45U 60007A   21216.14243184 -.00000071  00000-0  92153-5 0  9995
2    45  66.6957  13.3438 0253412  13.5810 347.1941 14.33728689181861
Epoch (UTC): 04 August 2021 03:25:06
Eccentricity: 0.0253412
inclination: 66.6957°
perigee height: 598 km
apogee height: 960 km
right ascension of ascending node: 13.3438°
argument of perigee: 13.5810°
revolutions per day: 14.33728689
mean anomaly at epoch: 347.1941°
orbit number at epoch: 18186

The dashed part of the orbit path shows where the satellite is in the earth's shadow,  

DLR